Simultaneous Nadir Overpasses (SNOs) Predictions

Prediction of SNOs between NOAA-19 and TERRA Satellite Orbit:

Table of predicted SNOs for the next 14.0 days since TLE Epoch: 6/5/2021
Index Date (NOAA-19) Time (NOAA-19) Lat,Lon (NOAA-19) SZA (NOAA-19 ) Date (TERRA) Time (TERRA) Lat,Lon (TERRA) SZA (TERRA ) Distance(km) Time Diff (sec)
1 06/06/2021 15:49:03 80.26, -24.03 59.25 06/06/2021 15:49:03 80.27, -23.85 59.27 3.40 0
2 06/08/2021 21:22:07 -80.26, 72.88 120.96 06/08/2021 21:22:46 -80.27, 72.72 120.95 3.25 39
3 06/08/2021 22:13:12 80.25,-119.73 59.05 06/08/2021 22:12:12 80.27,-119.64 59.05 2.74 60
4 06/11/2021 02:55:23 80.28, 169.26 58.86 06/11/2021 02:56:28 80.27, 169.27 58.87 1.77 65
5 06/11/2021 03:46:17 -80.26, -23.10 121.13 06/11/2021 03:45:55 -80.27, -23.06 121.13 1.35 22
6 06/13/2021 09:19:32 80.27, 73.48 58.72 06/13/2021 09:19:37 80.27, 73.48 58.72 0.50 5
7 06/15/2021 14:52:38 -80.29, 169.96 121.40 06/15/2021 14:53:20 -80.27, 170.10 121.39 3.31 42
8 06/15/2021 15:43:41 80.26, -22.32 58.63 06/15/2021 15:42:46 80.27, -22.31 58.61 0.56 55
9 06/17/2021 20:25:51 80.28, -93.10 58.54 06/17/2021 20:27:01 80.30, -93.09 58.58 1.96 70



Historial Predications of SNOs between NOAA-19 and TERRA
